• In Deutschland
  • Länderverzeichnis
  • Für 7 Tage
  • Wassertemperatur
  • Satellitenkarten
  • Wetterkarte
  • Widgets
  • user-avatar
    Anmelden

    Stündliche Wetter Bad Endorf

    Heute, 13 Dezember, Mittwoch

    Zeit Temperatur Niederschläge Wind Luftdruck Luftfeuchtigkeit
    00:00 -2°C° 0,1 mm 2 m/S 716 mmHg 91%
    01:00 0°C° 0,1 mm 1 m/S 716 mmHg 90%
    02:00 -1°C° 0 mm 1 m/S 716 mmHg 90%
    03:00 -2°C° 0 mm 1 m/S 716 mmHg 90%
    04:00 -4°C° 0 mm 2 m/S 716 mmHg 90%
    05:00 -5°C° 0 mm 2 m/S 716 mmHg 89%
    06:00 -5°C° 0 mm 2 m/S 716 mmHg 88%
    07:00 -5°C° 0 mm 2 m/S 716 mmHg 87%
    08:00 -4°C° 0 mm 2 m/S 716 mmHg 85%
    09:00 -3°C° 0 mm 2 m/S 716 mmHg 82%
    10:00 -2°C° 0 mm 2 m/S 716 mmHg 79%
    11:00 -1°C° 0 mm 2 m/S 716 mmHg 77%
    12:00 +1°C° 0 mm 2 m/S 715 mmHg 75%
    13:00 +2°C° 0 mm 2 m/S 714 mmHg 73%
    14:00 +2°C° 0 mm 2 m/S 713 mmHg 76%
    15:00 +1°C° 0 mm 2 m/S 713 mmHg 79%
    16:00 -1°C° 0 mm 2 m/S 712 mmHg 82%
    17:00 -1°C° 0 mm 2 m/S 711 mmHg 81%
    18:00 -2°C° 0 mm 2 m/S 711 mmHg 81%
    19:00 -2°C° 0 mm 2 m/S 711 mmHg 80%
    20:00 -2°C° 0 mm 2 m/S 710 mmHg 79%
    21:00 -1°C° 0 mm 2 m/S 709 mmHg 78%
    22:00 -1°C° 0 mm 2 m/S 709 mmHg 77%
    23:00 -1°C° 0,2 mm 3 m/S 708 mmHg 76%

    Morgen, 14 Dezember, Donnerstag

    Zeit Temperatur Niederschläge Wind Luftdruck Luftfeuchtigkeit
    00:00 0°C° 0,2 mm 3 m/S 707 mmHg 76%
    01:00 0°C° 0,2 mm 3 m/S 706 mmHg 75%
    02:00 +1°C° 0,1 mm 3 m/S 706 mmHg 74%
    03:00 +1°C° 0,1 mm 3 m/S 705 mmHg 73%
    04:00 +1°C° 0,1 mm 4 m/S 705 mmHg 72%
    05:00 +1°C° 0,4 mm 4 m/S 706 mmHg 75%
    06:00 +1°C° 0,4 mm 4 m/S 706 mmHg 78%
    07:00 +1°C° 0,4 mm 5 m/S 707 mmHg 81%
    08:00 +1°C° 0,4 mm 5 m/S 707 mmHg 82%
    09:00 +1°C° 0,4 mm 4 m/S 708 mmHg 82%
    10:00 +1°C° 0,4 mm 4 m/S 709 mmHg 83%
    11:00 +1°C° 0,2 mm 4 m/S 708 mmHg 84%
    12:00 +2°C° 0,2 mm 3 m/S 708 mmHg 84%
    13:00 +2°C° 0,2 mm 3 m/S 708 mmHg 85%
    14:00 +1°C° 0,1 mm 3 m/S 708 mmHg 87%
    15:00 +2°C° 0,1 mm 2 m/S 707 mmHg 89%
    16:00 +2°C° 0,1 mm 2 m/S 707 mmHg 92%
    17:00 +1°C° 0,1 mm 2 m/S 706 mmHg 90%
    18:00 +1°C° 0,1 mm 2 m/S 706 mmHg 89%
    19:00 +1°C° 0,1 mm 2 m/S 705 mmHg 87%
    20:00 -1°C° 0,1 mm 2 m/S 704 mmHg 85%
    21:00 -1°C° 0,1 mm 3 m/S 704 mmHg 83%
    22:00 -1°C° 0,1 mm 3 m/S 703 mmHg 81%
    23:00 0°C° 0 mm 3 m/S 702 mmHg 79%

    übermorgen, 15 Dezember, Freitag

    Zeit Temperatur Niederschläge Wind Luftdruck Luftfeuchtigkeit
    00:00 0°C° 0 mm 3 m/S 701 mmHg 78%
    01:00 0°C° 0 mm 3 m/S 701 mmHg 76%
    02:00 -1°C° 0,6 mm 4 m/S 701 mmHg 79%
    03:00 0°C° 0,6 mm 4 m/S 702 mmHg 83%
    04:00 0°C° 0,6 mm 4 m/S 702 mmHg 86%
    05:00 -1°C° 0,3 mm 4 m/S 703 mmHg 87%
    06:00 0°C° 0,3 mm 3 m/S 703 mmHg 87%
    07:00 0°C° 0,3 mm 3 m/S 703 mmHg 87%
    08:00 0°C° 0,1 mm 3 m/S 703 mmHg 87%
    09:00 +1°C° 0,1 mm 2 m/S 703 mmHg 87%
    10:00 +1°C° 0,1 mm 2 m/S 703 mmHg 87%
    11:00 +2°C° 0,1 mm 2 m/S 703 mmHg 86%
    12:00 +2°C° 0,1 mm 2 m/S 704 mmHg 85%
    13:00 +3°C° 0,1 mm 2 m/S 704 mmHg 84%
    14:00 +2°C° 0 mm 2 m/S 704 mmHg 85%
    15:00 +1°C° 0 mm 2 m/S 704 mmHg 86%
    16:00 +2°C° 0 mm 1 m/S 704 mmHg 87%
    17:00 -1°C° 0 mm 2 m/S 704 mmHg 86%
    18:00 -2°C° 0 mm 2 m/S 704 mmHg 86%
    19:00 -2°C° 0 mm 2 m/S 704 mmHg 86%
    20:00 -2°C° 0,1 mm 2 m/S 705 mmHg 85%
    21:00 -2°C° 0,1 mm 2 m/S 705 mmHg 84%
    22:00 -2°C° 0,1 mm 2 m/S 705 mmHg 83%
    23:00 -2°C° 0,3 mm 3 m/S 706 mmHg 83%

    16 Dezember, Samstag

    Zeit Temperatur Niederschläge Wind Luftdruck Luftfeuchtigkeit
    00:00 -2°C° 0,3 mm 3 m/S 706 mmHg 83%
    01:00 -3°C° 0,3 mm 4 m/S 707 mmHg 83%
    02:00 -3°C° 0,1 mm 4 m/S 707 mmHg 84%
    03:00 -3°C° 0,1 mm 4 m/S 708 mmHg 86%
    04:00 -2°C° 0,1 mm 3 m/S 708 mmHg 87%
    05:00 -2°C° 0 mm 3 m/S 709 mmHg 88%
    06:00 -4°C° 0 mm 3 m/S 709 mmHg 89%
    07:00 -3°C° 0 mm 2 m/S 710 mmHg 91%
    08:00 -3°C° 0 mm 2 m/S 711 mmHg 89%
    09:00 -2°C° 0 mm 2 m/S 711 mmHg 87%
    10:00 -1°C° 0 mm 3 m/S 712 mmHg 86%
    11:00 -1°C° 0 mm 3 m/S 712 mmHg 83%
    12:00 0°C° 0 mm 3 m/S 712 mmHg 81%
    13:00 +1°C° 0 mm 3 m/S 711 mmHg 79%
    14:00 +1°C° 0 mm 2 m/S 712 mmHg 81%
    15:00 -1°C° 0 mm 2 m/S 712 mmHg 83%
    16:00 -2°C° 0 mm 2 m/S 712 mmHg 86%
    17:00 -2°C° 0 mm 2 m/S 713 mmHg 85%
    18:00 -3°C° 0 mm 2 m/S 713 mmHg 85%
    19:00 -5°C° 0 mm 3 m/S 714 mmHg 85%
    20:00 -4°C° 0,1 mm 3 m/S 714 mmHg 84%
    21:00 -4°C° 0,1 mm 3 m/S 715 mmHg 84%
    22:00 -4°C° 0,1 mm 3 m/S 715 mmHg 84%
    23:00 -3°C° 0,2 mm 2 m/S 715 mmHg 85%

    17 Dezember, Sonntag

    Zeit Temperatur Niederschläge Wind Luftdruck Luftfeuchtigkeit
    00:00 -3°C° 0,2 mm 2 m/S 716 mmHg 87%
    01:00 -3°C° 0,2 mm 2 m/S 716 mmHg 88%
    02:00 -3°C° 0,3 mm 2 m/S 716 mmHg 89%
    03:00 -3°C° 0,3 mm 2 m/S 716 mmHg 91%
    04:00 -3°C° 0,3 mm 2 m/S 717 mmHg 92%
    05:00 -3°C° 0,3 mm 2 m/S 717 mmHg 92%
    06:00 -3°C° 0,3 mm 2 m/S 717 mmHg 93%
    07:00 -3°C° 0,3 mm 2 m/S 718 mmHg 94%
    08:00 -3°C° 0,2 mm 2 m/S 718 mmHg 93%
    09:00 -2°C° 0,2 mm 3 m/S 719 mmHg 92%
    10:00 -2°C° 0,2 mm 3 m/S 719 mmHg 91%
    11:00 -2°C° 0,3 mm 3 m/S 719 mmHg 91%
    12:00 -1°C° 0,3 mm 3 m/S 720 mmHg 90%
    13:00 -1°C° 0,3 mm 3 m/S 720 mmHg 89%
    14:00 -2°C° 0,2 mm 3 m/S 720 mmHg 90%
    15:00 -2°C° 0,2 mm 3 m/S 720 mmHg 91%
    16:00 -2°C° 0,2 mm 2 m/S 721 mmHg 92%
    17:00 -2°C° 0,2 mm 2 m/S 721 mmHg 92%
    18:00 -3°C° 0,2 mm 2 m/S 722 mmHg 93%
    19:00 -3°C° 0,2 mm 2 m/S 723 mmHg 94%
    20:00 -3°C° 0,2 mm 2 m/S 723 mmHg 94%
    21:00 -3°C° 0,2 mm 2 m/S 723 mmHg 94%
    22:00 -4°C° 0,2 mm 2 m/S 724 mmHg 94%
    23:00 -4°C° 0,1 mm 2 m/S 724 mmHg 93%

    18 Dezember, Montag

    Zeit Temperatur Niederschläge Wind Luftdruck Luftfeuchtigkeit
    00:00 -4°C° 0,1 mm 2 m/S 724 mmHg 93%
    01:00 -4°C° 0,1 mm 2 m/S 724 mmHg 92%
    02:00 -4°C° 0 mm 2 m/S 725 mmHg 91%
    03:00 -4°C° 0 mm 2 m/S 725 mmHg 90%
    04:00 -5°C° 0 mm 2 m/S 725 mmHg 89%
    05:00 -5°C° 0 mm 2 m/S 725 mmHg 87%
    06:00 -5°C° 0 mm 2 m/S 725 mmHg 86%
    07:00 -6°C° 0 mm 2 m/S 725 mmHg 84%
    08:00 -5°C° 0 mm 2 m/S 725 mmHg 83%
    09:00 -5°C° 0 mm 2 m/S 725 mmHg 82%
    10:00 -4°C° 0 mm 2 m/S 725 mmHg 81%
    11:00 -1°C° 0 mm 1 m/S 725 mmHg 79%
    12:00 0°C° 0 mm 1 m/S 724 mmHg 77%
    13:00 0°C° 0 mm 0 m/S 724 mmHg 74%
    14:00 -1°C° 0 mm 0 m/S 724 mmHg 78%
    15:00 -2°C° 0 mm 0 m/S 724 mmHg 82%
    16:00 -3°C° 0 mm 0 m/S 724 mmHg 85%
    17:00 -3°C° 0 mm 1 m/S 724 mmHg 85%
    18:00 -3°C° 0 mm 1 m/S 725 mmHg 85%
    19:00 -4°C° 0 mm 1 m/S 725 mmHg 84%
    20:00 -4°C° 0 mm 1 m/S 725 mmHg 83%
    21:00 -4°C° 0 mm 1 m/S 726 mmHg 82%
    22:00 -4°C° 0 mm 1 m/S 726 mmHg 81%
    23:00 -4°C° 0 mm 1 m/S 726 mmHg 81%
    Mehr zeigen